Погода в Тегах

Россия / Ханты-Мансийский автономный округ - Югра     64°19′09″N   65°23′05″E
темп.,
°C
ветер,
м/с
пор.,
м/с
влажн.,
%
обл.,
%
осадки,
мм/ч
давл.,
гПа
погр.,
м
8 марта, пн
пн823:00−21сз239899 0.2 100725
02:00−22ссз349999 0.0 100625
05:00−23с459899 0.1 100689
08:00−26с459888 0.1 100582
11:00−25с569689 0.1 1005243
14:00−25с5695100 0.0 1005309
17:00−27ссз449695 0.0 100635
20:00−30с331000 0.0 100719
9 марта, вт
вт923:00−32с221000 0.0 100719
02:00−33ссв221006 0.0 100719
05:00−35в1110026 0.0 100819
08:00−34всв1110055 0.0 100819
11:00−30св129467 0.0 100997
14:00−28ссв229397 0.0 1009165
17:00−29с339595 0.0 101022
20:00−31с449765 0.0 101023
10 марта, ср
ср1023:00−33с349971 0.0 101221
02:00−35ссз339454 0.0 101219
05:00−37сз129727 0.0 101219
08:00−36зюз22970 0.0 101219
11:00−30ююз238624 0.0 1012127
14:00−27ю4491100 0.0 1011241
17:00−27ю3494100 0.0 101182
20:00−29ю229692 0.0 101119
11 марта, чт
чт1123:00−32ююв1110092 0.0 101219
02:00−33св1110089 0.0 101219
05:00−34ссв2210054 0.0 101219
08:00−34ссв221000 0.0 101319
11:00−30с22940 0.0 1014107
14:00−28ссв229056 0.0 1014160
17:00−30всв119427 0.0 101319
20:00−32ююз22950 0.0 101419
12 марта, пт
пт1223:00−31ююз34991 0.0 101419
02:00−31ююз459848 0.0 101231
05:00−31ююз569824 0.0 101155
08:00−31ююз689564 0.0 1010101
11:00−26ююз7109052 0.0 1009265
14:00−21ююз799118 0.0 1008345
17:00−19ююз689553 0.0 1007185
20:00−21ююз459889 0.0 100742